Location: Scenic
(43.7797°N, 102.5549°W)
Time: 03:35:46
(UTC-07:00)

OTV 5 (USA 277) - Visible Passes

Search period start: 19 November 2017 00:00
Search period end: 29 November 2017 00:00
Orbit: 404 x 417 km, 43.0° (Epoch: 07 September)

Date Brightness Start Highest point End Pass type
(mag) Time Alt. Az. Time Alt. Az. Time Alt. Az.
19 Nov ? 05:21:27 24° SW 05:22:09 26° SSW 05:24:56 10° SSE visible
20 Nov ? 04:32:56 20° SSE 04:32:56 20° SSE 04:34:12 10° SE visible
21 Nov ? 05:17:14 13° SSW 05:17:14 13° SSW 05:18:37 10° S visible
